Location: Jastrz?bniki
(50.3667°N, 20.3833°E)
Time: 11:15:44
(UTC+00:00)

DMSP B5D2-2 - Pass Details

Date: 05 August 2024
Orbit: 787 x 802 km, 98.3° (Epoch: 06 September)

Event Time Altitude Azimuth Distance (km) Brightness Sun altitude
Rises 02:05:20 0° 162° (SSE) 3,278 7.0 -9.6°
Reaches altitude 10° 02:07:38 10° 162° (SSE) 2,351 6.3 -9.4°
Maximum altitude 02:12:51 87° 75° (ENE) 798 4.1 -8.7°
Drops below altitude 10° 02:18:04 10° 346° (NNW) 2,362 6.9 -8.1°
Sets 02:20:24 0° 346° (NNW) 3,295 7.6 -7.8°
